Vorticity
8 6 6 6 6 7 8 8 8 8 8 8 8 7 7 6 6 6 5 4 4 4 5 6 6 7 9 6 9 11 7 4 4
5 5 5 6 6 6 6 6 7 7 8 8 8 8 8 7 6 5 4 4 4 4 4 4 5 5 6 7 5 2 4 10 9
6 5 5 5 5 5 5 6 6 7 7 6 5 6 5 5 5 4 4 3 3 3 4 4 5 4 4 5 6 7 4 1 4
6 5 6 6 6 6 5 5 5 4 5 5 5 5 4 4 4 4 4 4 3 3 4 5 5 6 5 5 5 4 4 5 3
4 5 5 5 5 5 4 4 4 4 5 5 5 5 5 5 5 5 5 4 5 5 4 5 3 2 2 2 3 4 4 5 5
4 4 4 3 3 3 3 4 3 4 4 5 5 6 6 6 6 5 5 5 5 6 5 5 4 3 4 4 3 2 2 2 3
2 1 2 3 4 4 4 4 4 4 4 6 7 7 7 8 8 8 8 8 6 6 7 8 7 5 4 2 2 3 4 3 3
1 2 4 5 6 5 5 5 6 7 8 8 8 8 8 8 8 7 7 7 8 7 7 6 6 6 6 6 5 5 4 2 3
1 2 3 5 6 6 5 6 7 7 7 7 8 8 9 9 8 8 8 8 7 7 7 6 6 5 5 6 6 6 5 5 6
2 2 3 4 5 6 5 6 7 7 8 9 9 9 9 9 9 9 8 7 7 6 6 5 5 6 6 6 6 5 5 5 5
2 3 3 4 5 5 4 5 7 6 7 9 9 9 8 7 7 7 6 6 6 6 6 6 6 6 6 6 6 6 6 6 6
3 3 4 5 5 5 4 6 6 6 7 7 7 7 7 7 7 7 7 6 6 6 7 7 7 7 8 8 8 9 9 10 10
4 4 5 5 5 4 4 6 6 7 7 7 7 7 6 6 6 6 6 7 7 8 8 7 6 6 7 8 8 10 12 12 13
4 5 6 6 5 4 5 7 5 6 7 6 6 6 6 6 6 6 7 7 7 8 8 9 11 12 10 8 8 11 14 16 19
5 6 6 5 5 3 7 5 6 6 7 7 6 6 6 6 7 6 9 9 9 11 11 11 10 9 11 12 12 14 16 19 21
5 6 6 5 4 5 6 4 6 7 6 6 5 5 6 6 7 8 11 8 7 11 11 11 12 11 12 17 22 22 19 19 18
5 6 5 6 3 7 5 6 7 6 6 6 7 8 7 6 7 9 9 10 13 14 13 11 11 15 21 24 28 31 30 27 26
5 6 4 5 5 6 4 6 6 6 7 7 5 11 8 7 7 8 10 11 14 12 8 4 15 22 21 22 19 18 16 18 21
5 5 6 3 7 4 5 6 6 7 7 7 6 7 8 8 9 8 9 8 12 9 5 7 22 21 17 14 16 13 12 14 16
6 5 5 5 6 3 5 6 7 7 7 5 5 5 7 8 9 7 8 8 13 6 5 18 22 16 9 14 17 19 19 20 22
Height
3141 3141 3140 3140 3139 3139 3139 3138 3138 3136 3136 3135 3135 3135 3135 3135 3134 3134 3135 3135 3134 3134 3135 3135 3135 3135 3136 3136 3136 3136 3137 3137 3137
3140 3139 3139 3138 3137 3137 3137 3136 3136 3134 3134 3133 3132 3132 3132 3132 3131 3131 3130 3130 3130 3131 3132 3132 3133 3133 3133 3133 3133 3134 3133 3134 3134
3138 3137 3137 3136 3136 3135 3134 3133 3133 3132 3132 3131 3130 3130 3130 3129 3128 3128 3127 3127 3126 3126 3126 3127 3128 3128 3128 3129 3129 3129 3130 3130 3130
3135 3135 3136 3135 3134 3133 3132 3131 3131 3130 3129 3129 3128 3127 3126 3125 3125 3124 3123 3123 3122 3121 3121 3122 3122 3122 3122 3123 3123 3124 3125 3125 3126
3134 3135 3135 3132 3132 3131 3129 3129 3128 3127 3126 3125 3124 3123 3123 3122 3121 3119 3118 3118 3117 3116 3116 3116 3116 3116 3117 3117 3117 3118 3119 3119 3120
3132 3133 3131 3131 3129 3128 3126 3126 3125 3124 3123 3121 3120 3119 3118 3117 3116 3115 3114 3113 3112 3111 3110 3110 3110 3110 3110 3110 3111 3111 3112 3112 3112
3130 3130 3129 3127 3125 3124 3123 3123 3122 3120 3119 3117 3116 3115 3113 3111 3110 3109 3108 3108 3106 3105 3104 3104 3103 3103 3102 3103 3103 3103 3103 3104 3105
3128 3127 3125 3123 3122 3121 3120 3119 3118 3117 3115 3113 3111 3109 3107 3106 3104 3103 3102 3101 3100 3099 3097 3096 3095 3094 3094 3093 3093 3094 3094 3095 3094
3124 3122 3122 3121 3120 3118 3116 3115 3114 3112 3111 3108 3106 3104 3102 3100 3098 3097 3096 3094 3092 3090 3089 3087 3086 3085 3084 3083 3082 3082 3082 3082 3083
3120 3120 3119 3117 3116 3114 3112 3111 3109 3107 3105 3103 3101 3097 3095 3093 3092 3090 3087 3085 3083 3081 3078 3076 3074 3073 3070 3069 3069 3068 3067 3066 3067
3116 3116 3114 3113 3111 3110 3108 3106 3104 3102 3100 3097 3094 3091 3089 3087 3084 3082 3079 3077 3074 3070 3067 3065 3062 3060 3057 3055 3053 3051 3050 3049 3049
3111 3110 3110 3108 3106 3104 3103 3100 3098 3096 3093 3090 3087 3083 3081 3079 3076 3074 3070 3067 3063 3059 3055 3052 3048 3044 3041 3036 3034 3032 3031 3031 3030
3105 3105 3104 3103 3101 3099 3097 3094 3092 3090 3087 3083 3079 3076 3073 3070 3067 3063 3059 3055 3050 3047 3042 3037 3033 3028 3022 3018 3015 3013 3011 3009 3009
3099 3099 3099 3097 3095 3093 3090 3088 3085 3081 3079 3076 3072 3067 3066 3062 3058 3053 3049 3042 3036 3031 3025 3018 3012 3007 3002 2998 2994 2991 2988 2986 2984
3094 3094 3093 3091 3089 3087 3083 3080 3075 3072 3070 3068 3065 3060 3057 3054 3050 3045 3039 3031 3026 3020 3011 3003 2996 2989 2982 2976 2971 2967 2964 2961 2960
3089 3088 3087 3084 3083 3080 3078 3073 3068 3063 3061 3059 3058 3053 3047 3045 3041 3036 3029 3020 3013 3008 2998 2989 2980 2973 2967 2960 2954 2948 2943 2941 2938
3083 3082 3080 3079 3076 3074 3071 3067 3062 3056 3051 3046 3042 3038 3037 3030 3028 3024 3018 3009 3000 2992 2984 2975 2964 2955 2945 2938 2934 2930 2927 2922 2919
3077 3076 3075 3073 3071 3067 3064 3060 3055 3050 3044 3039 3034 3023 3018 3011 3012 3010 3003 2996 2986 2976 2967 2958 2947 2938 2929 2923 2918 2914 2910 2908 2907
3071 3071 3069 3067 3065 3061 3056 3052 3048 3043 3038 3032 3027 3020 3010 2998 2989 2988 2985 2982 2974 2966 2955 2944 2933 2926 2919 2915 2909 2904 2901 2898 2895
3066 3065 3063 3061 3058 3054 3050 3045 3041 3036 3031 3025 3019 3014 3007 2998 2986 2974 2974 2971 2966 2962 2951 2936 2925 2917 2912 2906 2901 2895 2890 2887 2885